North Island, CA

10:20 AM PDT on April 28, 2017 (GMT -0700)
North Island Naval Air Station

Weather History for KNZY - March, 2013

Change the Weather History Date:

Sunday, March 31, 2013

  Actual Average Record
Temperature  
Mean Temperature 64 °F -  
Max Temperature 73 °F 61 °F 82 °F (2011)
Min Temperature 57 °F 51 °F 48 °F (1998)
Degree Days  
Heating Degree Days 2    
Growing Degree Days 14 (Base 50)    
Moisture  
Dew Point 54 °F    
Average Humidity 73    
Maximum Humidity 90    
Minimum Humidity 53    
Precipitation  
Precipitation 0.00 in - - ()
Sea Level Pressure  
Sea Level Pressure 30.11 in    
Wind  
Wind Speed 4 mph (WNW)    
Max Wind Speed 13 mph    
Max Gust Speed -    
Visibility 10 miles    
Events      
Averages and records for this station are not official NWS values.
T = Trace of Precipitation, MM = Missing Value Source: NWS Daily Summary

Daily Weather History Graph

Daily Weather History Graph

Search for Another Location

Airport or City:

Trip Planner

Search our weather history database for the weather conditions in past years. The results will help you decide how hot, cold, wet, or windy it might be!

Date:

Astronomy

Mar. 31, 2013 Rise Set
Actual Time 6:37 AM PDT 7:08 PM PDT
Civil Twilight 6:12 AM PDT 7:33 PM PDT
Nautical Twilight 5:43 AM PDT 8:02 PM PDT
Astronomical Twilight 5:14 AM PDT 8:32 PM PDT
Moon No Moon Rise 9:43 AM PDT (3/31)
Length of Visible Light 13h 20m
Length of Day
12h 30m
Waning Gibbous, 76% of the Moon is Illuminated
Mar 31
Waning Gibbous
Apr 2
Last Quarter
Apr 10
New
Apr 18
First Quarter
Apr 25
Full

Hourly Weather History & Observations

Time (PDT) Temp. Dew Point Humidity Pressure Visibility Wind Dir Wind Speed Gust Speed Precip Events Conditions
12:52 AM 57.9 °F 53.1 °F 84% 30.12 in 10.0 mi NW 3.5 mph - N/A   Partly Cloudy
1:52 AM 59.0 °F 53.1 °F 81% 30.12 in 10.0 mi Calm Calm - N/A   Scattered Clouds
2:06 AM 59.0 °F 53.6 °F 82% 30.12 in 10.0 mi Calm Calm - N/A   Mostly Cloudy
2:52 AM 60.1 °F 54.0 °F 80% 30.12 in 10.0 mi NNW 3.5 mph - N/A   Overcast
3:37 AM 60.8 °F 53.6 °F 77% 30.10 in 10.0 mi NNW 4.6 mph - N/A   Overcast
3:52 AM 60.1 °F 53.1 °F 78% 30.10 in 10.0 mi North 3.5 mph - N/A   Overcast
4:52 AM 60.1 °F 52.0 °F 75% 30.10 in 10.0 mi Calm Calm - N/A   Mostly Cloudy
5:52 AM 59.0 °F 52.0 °F 78% 30.11 in 10.0 mi Calm Calm - N/A   Mostly Cloudy
6:52 AM 59.0 °F 53.1 °F 81% 30.12 in 10.0 mi North 4.6 mph - N/A   Mostly Cloudy
7:52 AM 60.1 °F 53.1 °F 78% 30.13 in 10.0 mi ENE 4.6 mph - N/A   Mostly Cloudy
8:52 AM 61.0 °F 52.0 °F 72% 30.13 in 10.0 mi NE 6.9 mph - N/A   Mostly Cloudy
9:52 AM 64.0 °F 51.1 °F 63% 30.14 in 10.0 mi North 3.5 mph - N/A   Scattered Clouds
10:52 AM 66.9 °F 52.0 °F 59% 30.14 in 10.0 mi Variable 3.5 mph - N/A   Scattered Clouds
11:52 AM 68.0 °F 51.1 °F 55% 30.13 in 10.0 mi South 8.1 mph - N/A   Scattered Clouds
12:52 PM 70.0 °F 52.0 °F 53% 30.12 in 10.0 mi West 8.1 mph - N/A   Scattered Clouds
1:52 PM 68.0 °F 52.0 °F 56% 30.10 in 10.0 mi West 12.7 mph - N/A   Scattered Clouds
2:52 PM 69.1 °F 52.0 °F 54% 30.08 in 10.0 mi West 11.5 mph - N/A   Scattered Clouds
3:52 PM 68.0 °F 53.1 °F 59% 30.08 in 10.0 mi WSW 10.4 mph - N/A   Mostly Cloudy
4:52 PM 66.9 °F 54.0 °F 63% 30.07 in 10.0 mi WSW 11.5 mph - N/A   Scattered Clouds
5:52 PM 64.9 °F 55.0 °F 70% 30.07 in 10.0 mi WSW 4.6 mph - N/A   Scattered Clouds
6:17 PM 64.4 °F 55.4 °F 73% 30.07 in 10.0 mi WSW 5.8 mph - N/A   Mostly Cloudy
6:52 PM 63.0 °F 55.9 °F 78% 30.08 in 10.0 mi NW 5.8 mph - N/A   Mostly Cloudy
7:52 PM 63.0 °F 57.0 °F 81% 30.08 in 10.0 mi WNW 8.1 mph - N/A   Mostly Cloudy
8:52 PM 62.1 °F 57.0 °F 84% 30.10 in 10.0 mi West 9.2 mph - N/A   Mostly Cloudy
9:52 PM 60.1 °F 57.0 °F 90% 30.12 in 10.0 mi WNW 4.6 mph - N/A   Mostly Cloudy
10:52 PM 61.0 °F 54.0 °F 78% 30.12 in 10.0 mi WNW 8.1 mph - N/A   Scattered Clouds
11:52 PM 60.1 °F 54.0 °F 80% 30.12 in 10.0 mi WNW 8.1 mph - N/A   Scattered Clouds